TimeCST,TemperatureF,Dew PointF,Humidity,Sea Level PressureIn,VisibilityMPH,Wind Direction,Wind SpeedMPH,Gust SpeedMPH,PrecipitationIn,Events,Conditions,WindDirDegrees,DateUTC
12:53 AM,64.9,57.0,75,30.12,10.0,Calm,Calm,-,N/A,,Clear,0,2012-11-07 06:53:00
1:53 AM,64.0,57.0,78,30.12,10.0,Calm,Calm,-,N/A,,Clear,0,2012-11-07 07:53:00
2:53 AM,64.0,57.0,78,30.12,10.0,Calm,Calm,-,N/A,,Clear,0,2012-11-07 08:53:00
3:53 AM,63.0,57.9,84,30.11,10.0,Calm,Calm,-,N/A,,Clear,0,2012-11-07 09:53:00
4:53 AM,63.0,57.9,84,30.11,10.0,Calm,Calm,-,N/A,,Clear,0,2012-11-07 10:53:00
5:53 AM,62.1,57.0,84,30.12,10.0,Calm,Calm,-,N/A,,Clear,0,2012-11-07 11:53:00
6:53 AM,62.1,57.9,86,30.13,10.0,Calm,Calm,-,N/A,,Clear,0,2012-11-07 12:53:00
7:53 AM,68.0,60.1,76,30.15,10.0,Calm,Calm,-,N/A,,Clear,0,2012-11-07 13:53:00
8:53 AM,73.0,59.0,61,30.16,10.0,SE,5.8,-,N/A,,Clear,140,2012-11-07 14:53:00
9:53 AM,79.0,60.1,52,30.17,10.0,SE,8.1,-,N/A,,Clear,130,2012-11-07 15:53:00
10:53 AM,81.0,61.0,50,30.15,10.0,SSE,11.5,16.1,N/A,,Clear,150,2012-11-07 16:53:00
11:53 AM,84.0,62.1,47,30.13,10.0,South,6.9,-,N/A,,Clear,170,2012-11-07 17:53:00
12:53 PM,84.9,57.9,40,30.09,10.0,Variable,4.6,17.3,N/A,,Clear,0,2012-11-07 18:53:00
1:53 PM,86.0,55.9,36,30.06,10.0,ESE,9.2,-,N/A,,Partly Cloudy,110,2012-11-07 19:53:00
2:53 PM,87.1,55.9,35,30.04,10.0,ESE,8.1,-,N/A,,Clear,110,2012-11-07 20:53:00
3:53 PM,86.0,51.1,30,30.03,10.0,ESE,9.2,-,N/A,,Clear,120,2012-11-07 21:53:00
4:53 PM,84.2,48.2,29,30.04,10.0,SE,11.5,-,N/A,,Clear,140,2012-11-07 22:53:00
5:53 PM,80.1,51.1,36,30.04,10.0,ESE,6.9,-,N/A,,Clear,120,2012-11-07 23:53:00
6:53 PM,78.1,54.0,43,30.06,10.0,ESE,10.4,-,N/A,,Clear,120,2012-11-08 00:53:00
7:53 PM,73.9,54.0,50,30.09,10.0,SE,9.2,-,N/A,,Clear,130,2012-11-08 01:53:00
8:53 PM,69.1,55.0,61,30.11,10.0,SE,5.8,-,N/A,,Clear,140,2012-11-08 02:53:00
9:53 PM,68.0,55.9,65,30.12,10.0,SE,4.6,-,N/A,,Clear,130,2012-11-08 03:53:00
10:53 PM,66.0,55.9,70,30.12,10.0,SE,4.6,-,N/A,,Clear,130,2012-11-08 04:53:00
11:53 PM,64.0,55.9,75,30.10,10.0,SE,4.6,-,N/A,,Clear,130,2012-11-08 05:53:00